Regional Weather Roundup
Issued by NWS

Home | Current Version | Previous Version | Graphics & Text | Print | Product List | Glossary On
Versions: 1 2 3 4 5 6 7 8 9 10 11 12 13 14 15 16 17 18 19 20 21 22 23 24 25 26 27 28 29 30 31 32 33 34 35 36 37 38 39 40 41 42 43 44 45 46 47 48 49 50
000
ASUS43 KDMX 261604
RWRIA

WEATHER ROUNDUP FOR IOWA
NATIONAL WEATHER SERVICE DES MOINES IA
  ISSUED BY NWS QUAD CITIES IA IL
1000 AM CST MON JAN 26 2015

NOTE: "FAIR" INDICATES FEW OR NO CLOUDS BELOW 12,000 FEET WITH NO
SIGNIFICANT WEATHER AND/OR OBSTRUCTIONS TO VISIBILITY.

* - THESE STATIONS ARE NOT NWS STATIONS...THUS NOT UNDER NWS
QUALITY CONTROL.  THEY ALSO DO NOT REPORT WEATHER SUCH
AS PRECIPITATION OR FOG.

IAZ001>003-012>014-020>022-031>034-043>046-261700-
   NORTHWEST IOWA

CITY           SKY/WX    TMP DP  RH WIND       PRES   REMARKS
CARROLL *      MOSUNNY   39  34  81 W20G28    29.81R WCI  30
CHEROKEE *     SUNNY     39  35  84 NW7       29.83R WCI  34
DENNISON *     SUNNY     39  34  81 W8        29.83R WCI  34
LE MARS *      MOSUNNY   41  36  81 NW12      29.87R WCI  34
ORANGE CITY *  SUNNY     39  34  81 NW15      29.84R WCI  31
SHELDON *      SUNNY     37  36  93 NW14      29.82R WCI  29
SIOUX CITY     SUNNY     43  36  76 NW16      29.87R WCI  35
SPENCER        MOSUNNY   40  33  76 NW14      29.80R WCI  32
STORM LAKE *   SUNNY     37  34  87 NW16      29.82R WCI  28
$$

IAZ055>058-069>071-079>083-090>094-261700-
   SOUTHWEST IOWA

CITY           SKY/WX    TMP DP  RH WIND       PRES   REMARKS
ATLANTIC *     SUNNY     37  32  81 W15       29.84S WCI  28
AUDUBON *      SUNNY     37  34  87 W8        29.83R WCI  31
CLARINDA *     SUNNY     36  32  87 SW12      29.90F WCI  27
COUNCIL BLFS * SUNNY     39  36  87 W9        29.86S WCI  33
CRESTON *      MOSUNNY   36  32  87 W20G26    29.82F WCI  25
HARLAN *       SUNNY     39  37  93 W12       29.88S WCI  32
LAMONI         CLOUDY    33  29  85 SW15      29.85F WCI  23
RED OAK *      SUNNY     39  32  75 W9        29.87F WCI  33
SHENANDOAH *   SUNNY     39  34  81 SW8       29.90F WCI  34
$$

IAZ047>049-059>061-072>074-084-261700-
   CENTRAL IOWA

CITY           SKY/WX    TMP DP  RH WIND       PRES   REMARKS
AMES           CLOUDY    36  30  79 W14       29.80R WCI  27
ANKENY *       CLOUDY    37  30  75 W16       29.79R WCI  28
BOONE *        CLOUDY    36  32  87 W14G22    29.78R WCI  27
CHARITON *     CLOUDY    34  30  86 SW13G24   29.81F WCI  25
DES MOINES     CLOUDY    38  30  73 W16       29.81F WCI  29
GRINNELL *     CLOUDY    32  30  91 S9        29.82R WCI  24
KNOXVILLE *    CLOUDY    34  30  86 SW12G20   29.79F WCI  25
MARSHALLTOWN   PTSUNNY   33  30  88 SW13      29.79F WCI  24
NEWTON *       CLOUDY    34  30  86 SW7       29.82R WCI  28
PELLA *        CLOUDY    34  31  87 W5G10     29.85R WCI  30
PERRY *          N/A     38  33  83 W14       29.81R WCI  29
$$

IAZ004>006-015-016-023>025-035-036-261700-
   NORTH CENTRAL IOWA

CITY           SKY/WX    TMP DP  RH WIND       PRES   REMARKS
ALGONA *       SUNNY     37  36  93 W13       29.78R WCI  29
CLARION *      MOSUNNY   36  36 100 W14       29.77S WCI  27
ESTHERVILLE    SUNNY     36  32  85 NW16      29.77R WCI  26
FORT DODGE *   PTSUNNY   37  32  81 W12       29.80S WCI  30
MASON CITY     MOSUNNY   35  32  88 W14       29.76R WCI  26
FOREST CITY *  FAIR      36  32  87 W13       29.75S WCI  27
WEBSTER CITY * MOSUNNY   37  37 100 W16       29.76F WCI  28
IOWA FALLS *   FAIR      35  31  85 SW10      29.77F WCI  27
$$

IAZ007>011-017>019-026>030-037>042-050>054-066-261700-
   NORTHEAST IOWA

CITY           SKY/WX    TMP DP  RH WIND       PRES   REMARKS
CEDAR RAPIDS   CLOUDY    26  24  92 S10       29.84S FOG     WCI  16
CHARLES CITY * CLOUDY    32  32 100 S13       29.77R WCI  22
CLINTON *      CLOUDY    19  16  86 S9        29.94S WCI   9
DECORAH *      CLOUDY    25  23  93 S8G16     29.77S WCI  16
DUBUQUE        LGT SNOW  20  17  88 S13       29.85F FOG     WCI   7
MONTICELLO *   PTSUNNY   23  23 100 S12       29.86F WCI  12
OELWEIN *      CLOUDY    27  23  86 S14G21    29.80S WCI  15
WATERLOO       CLOUDY    30  28  92 S10       29.79S WCI  21
$$

IAZ064-065-067-068-078-261700-
   EAST CENTRAL IOWA

CITY           SKY/WX    TMP DP  RH WIND       PRES   REMARKS
DAVENPORT      LGT SNOW  21  18  88 S9        29.93R VSB 3/4 WCI  11
IOWA CITY      LGT SNOW  26  24  92 SE7       29.91R FOG     WCI  18
MT. PLEASANT * CLOUDY    29  27  92 S9        29.89S WCI  21
MUSCATINE *    LGT SNOW  27  25  93 SE5       29.95R WCI  21
QUAD CITIES    SNOW      22  20  92 E3        29.94R VSB 1/2
$$

IAZ062-063-075>077-085>089-095>099-261700-
   SOUTHEAST IOWA

CITY           SKY/WX    TMP DP  RH WIND       PRES   REMARKS
BURLINGTON     LGT SNOW  28  27  96 S10       29.90F FOG     WCI  19
FAIRFIELD *    CLOUDY    32  28  86 S7        29.89R WCI  26
FORT MADISON * FLURRIES  30  28  93 S10       29.90F WCI  21
KEOKUK *       CLOUDY    30  28  93 S8        29.91S WCI  23
OSKALOOSA *    FAIR      33  30  89 CALM      29.87R
OTTUMWA        CLOUDY    33  30  88 S12       29.83F WCI  24
WASHINGTON *   CLOUDY    30  30 100 S10       29.90R WCI  21
$$

ABBREVIATIONS USED IN REMARKS
   TC - TEMPERATURES IN CELSIUS
  WCI - WIND CHILL INDEX
   HX - HEAT INDEX
  VSB - VISIBILITY
$$


USA.gov is the U.S. government's official web portal to all federal, state and local government web resources and services.